Waarnemingen

Advertentie
Mijn weer
Pantelleria, Italië (16470): temperatuur & dauwpunt: 14.10.2018 21:00:00 - 20.10.2018 21:00:00 (CEST)Pantelleria, Italië (16470): windsnelheid: 14.10.2018 21:00:00 - 20.10.2018 21:00:00 (CEST)Pantelleria, Italië (16470): windrichting: 14.10.2018 21:00:00 - 20.10.2018 21:00:00 (CEST)Pantelleria, Italië (16470): luchtdruk: 14.10.2018 21:00:00 - 20.10.2018 21:00:00 (CEST)Pantelleria, Italië (16470): zicht: 14.10.2018 21:00:00 - 20.10.2018 21:00:00 (CEST)Pantelleria, Italië (16470): Zonneschijnduur: 14.10.2018 21:00:00 - 20.10.2018 21:00:00 (CEST)
Datum & Tijd tt [°C] td [°C] ff [km/u] ff [kn] dd ppp [hPa] vv [km] sd [min]
20.10.2018 21:00:00 - - - - - - - -
20.10.2018 20:00:00 19,8 18,1 0 0 N 1019,2 15 0
20.10.2018 19:00:00 20,4 18,4 4 2 NO 1019,1 15 24
20.10.2018 18:00:00 21,2 19,0 5 3 NNO 1019,1 20 54
20.10.2018 17:00:00 21,4 19,1 9 5 NO 1019,1 25 60
20.10.2018 16:00:00 21,6 18,0 8 4 NNO 1019,0 20 60
20.10.2018 15:00:00 22,2 20,1 8 4 ONO 1019,1 20 54
20.10.2018 14:00:00 22,4 20,3 9 5 ONO 1019,1 20 48
20.10.2018 13:00:00 22,4 20,1 13 7 ONO 1019,2 20 60
20.10.2018 12:00:00 22,2 20,0 13 7 ONO 1019,1 20 60
20.10.2018 11:00:00 22,0 19,7 13 7 NO 1019,0 20 60
20.10.2018 10:00:00 21,6 19,3 13 7 NO 1018,7 20 60
20.10.2018 09:00:00 21,0 18,8 5 3 ONO 1018,1 20 18
20.10.2018 08:00:00 19,0 16,8 8 4 O 1017,2 20 0
20.10.2018 07:00:00 19,0 16,8 4 2 O 1017,2 15 0
20.10.2018 06:00:00 - - - - - - - -
20.10.2018 05:00:00 - - - - - - - -
20.10.2018 04:00:00 - - - - - - - -
20.10.2018 03:00:00 - - - - - - - -
20.10.2018 02:00:00 - - - - - - - -
20.10.2018 01:00:00 - - - - - - - -
20.10.2018 00:00:00 - - - - - - - -
19.10.2018 23:00:00 - - - - - - - -
19.10.2018 22:00:00 - - - - - - - -
19.10.2018 21:00:00 - - - - - - - -
19.10.2018 20:00:00 19,2 17,0 8 4 Z 1014,7 25 0
19.10.2018 19:00:00 20,0 18,0 5 3 O 1014,0 25 0
19.10.2018 18:00:00 20,0 18,0 13 7 O 1013,6 25 36
19.10.2018 17:00:00 20,4 18,4 15 8 O 1013,1 25 60
19.10.2018 16:00:00 20,4 18,4 11 6 ONO 1012,9 25 42
19.10.2018 15:00:00 20,0 17,8 15 8 NO 1012,8 25 36
19.10.2018 14:00:00 20,6 18,2 13 7 NO 1012,7 25 60
19.10.2018 13:00:00 21,0 18,6 18 10 NO 1012,3 10 60
19.10.2018 12:00:00 20,6 18,0 13 7 NO 1012,3 25 60
19.10.2018 11:00:00 20,0 17,4 13 7 ONO 1012,0 20 60
19.10.2018 10:00:00 20,0 17,2 13 7 ONO 1011,7 20 36
19.10.2018 09:00:00 19,0 16,6 11 6 O 1011,0 10 0
19.10.2018 08:00:00 18,2 15,8 13 7 ONO 1010,0 10 0
19.10.2018 07:00:00 18,0 15,4 13 7 ONO 1009,8 10 0
19.10.2018 06:00:00 - - - - - - - -
19.10.2018 05:00:00 - - - - - - - -
19.10.2018 04:00:00 - - - - - - - -
19.10.2018 03:00:00 - - - - - - - -
19.10.2018 02:00:00 - - - - - - - -
19.10.2018 01:00:00 - - - - - - - -
19.10.2018 00:00:00 - - - - - - - -
18.10.2018 23:00:00 - - - - - - - -
18.10.2018 22:00:00 - - - - - - - -
18.10.2018 21:00:00 - - - - - - - -
18.10.2018 20:00:00 17,0 15,0 37 20 O 1008,2 8 0
18.10.2018 19:00:00 17,0 15,4 39 21 O 1006,6 8 0
18.10.2018 18:00:00 19,2 17,4 35 19 O 1006,4 8 0
18.10.2018 17:00:00 19,8 17,2 24 13 O 1004,9 8 0
18.10.2018 16:00:00 19,0 16,0 31 17 ZO 1004,6 8 0
18.10.2018 15:00:00 21,0 18,9 34 18 OZO 1004,8 8 0
18.10.2018 14:00:00 21,4 18,8 31 17 O 1005,1 6 0
18.10.2018 13:00:00 21,4 19,2 35 19 OZO 1005,8 6 0
18.10.2018 12:00:00 21,2 19,1 34 18 OZO 1006,6 3,0 0
18.10.2018 11:00:00 21,0 19,1 35 19 ZO 1005,9 2,5 0
18.10.2018 10:00:00 21,4 19,0 37 20 ZO 1005,7 6 0
18.10.2018 09:00:00 21,4 19,0 29 16 ZO 1005,7 6 0
18.10.2018 08:00:00 21,6 19,2 37 20 ZO 1005,5 6 0
18.10.2018 07:00:00 21,4 19,2 35 19 OZO 1005,8 4,0 0
18.10.2018 06:00:00 - - - - - - - -
18.10.2018 05:00:00 - - - - - - - -
18.10.2018 04:00:00 - - - - - - - -
18.10.2018 03:00:00 - - - - - - - -
18.10.2018 02:00:00 - - - - - - - -
18.10.2018 01:00:00 - - - - - - - -
18.10.2018 00:00:00 - - - - - - - -
17.10.2018 23:00:00 - - - - - - - -
17.10.2018 22:00:00 - - - - - - - -
17.10.2018 21:00:00 - - - - - - - -
17.10.2018 20:00:00 21,0 18,8 28 15 O 1010,2 8 0
17.10.2018 19:00:00 21,0 18,8 28 15 O 1009,9 8 0
17.10.2018 18:00:00 21,0 18,8 46 25 O 1008,7 8 0
17.10.2018 17:00:00 21,2 19,0 37 20 O 1008,9 8 0
17.10.2018 16:00:00 21,2 19,0 28 15 O 1009,8 8 0
17.10.2018 15:00:00 21,6 19,4 34 18 ONO 1010,7 8 0
17.10.2018 14:00:00 21,4 19,1 22 12 O 1011,8 6 0
17.10.2018 13:00:00 21,2 19,0 24 13 OZO 1012,7 6 0
17.10.2018 12:00:00 21,2 19,0 18 10 OZO 1013,2 7 0
17.10.2018 11:00:00 21,0 18,8 15 8 OZO 1012,9 11 0
17.10.2018 10:00:00 20,8 18,5 18 10 O 1012,8 11 0
17.10.2018 09:00:00 20,6 18,4 46 25 NO 1011,5 11 0
17.10.2018 08:00:00 20,6 18,4 29 16 ONO 1012,9 11 0
17.10.2018 07:00:00 20,2 18,3 29 16 ONO 1013,2 10 0
17.10.2018 06:00:00 - - - - - - - -
17.10.2018 05:00:00 - - - - - - - -
17.10.2018 04:00:00 - - - - - - - -
17.10.2018 03:00:00 - - - - - - - -
17.10.2018 02:00:00 - - - - - - - -
17.10.2018 01:00:00 - - - - - - - -
17.10.2018 00:00:00 - - - - - - - -
16.10.2018 23:00:00 - - - - - - - -
16.10.2018 22:00:00 - - - - - - - -
16.10.2018 21:00:00 - - - - - - - -
16.10.2018 20:00:00 21,0 18,9 9 5 ONO 1015,0 8 0
16.10.2018 19:00:00 21,2 19,0 4 2 OZO 1014,5 8 0
16.10.2018 18:00:00 20,8 18,6 24 13 Z 1014,6 8 6
16.10.2018 17:00:00 20,6 18,4 22 12 ZZO 1014,5 8 0
16.10.2018 16:00:00 23,2 20,9 22 12 ZZO 1013,7 8 12
16.10.2018 15:00:00 23,6 21,5 28 15 ZZO 1013,9 8 36
16.10.2018 14:00:00 23,8 21,5 28 15 ZZO 1014,1 8 60
16.10.2018 13:00:00 23,8 21,5 26 14 ZZO 1014,7 10 0
16.10.2018 12:00:00 23,2 20,9 26 14 ZZO 1014,8 11 0
16.10.2018 11:00:00 22,2 19,9 24 13 ZZO 1014,9 8 0
16.10.2018 10:00:00 22,6 20,1 24 13 Z 1014,4 7 0
16.10.2018 09:00:00 22,4 20,1 24 13 ZZO 1013,8 11 0
16.10.2018 08:00:00 22,0 19,7 22 12 ZZO 1013,4 11 0
16.10.2018 07:00:00 22,0 20,3 28 15 ZZO 1013,2 15 0
16.10.2018 06:00:00 - - - - - - - -
16.10.2018 05:00:00 - - - - - - - -
16.10.2018 04:00:00 - - - - - - - -
16.10.2018 03:00:00 - - - - - - - -
16.10.2018 02:00:00 - - - - - - - -
16.10.2018 01:00:00 - - - - - - - -
16.10.2018 00:00:00 - - - - - - - -
15.10.2018 23:00:00 - - - - - - - -
15.10.2018 22:00:00 - - - - - - - -
15.10.2018 21:00:00 - - - - - - - -
15.10.2018 20:00:00 20,6 19,1 5 3 O 1014,0 12 0
15.10.2018 19:00:00 21,0 19,3 4 2 ZO 1013,4 15 0
15.10.2018 18:00:00 21,8 19,5 11 6 Z 1012,9 20 24
15.10.2018 17:00:00 22,0 19,7 9 5 Z 1012,9 20 60
15.10.2018 16:00:00 22,6 19,6 15 8 ZZW 1012,9 20 60
15.10.2018 15:00:00 22,2 18,2 15 8 ZZW 1012,9 15 60
15.10.2018 14:00:00 22,8 17,7 15 8 ZW 1013,1 15 60
15.10.2018 13:00:00 22,6 18,4 11 6 WZW 1013,6 15 60
15.10.2018 12:00:00 21,8 18,4 16 9 WZW 1013,7 15 60
15.10.2018 11:00:00 21,0 18,4 13 7 WZW 1013,5 15 48
15.10.2018 10:00:00 21,0 18,9 11 6 W 1013,8 15 54
15.10.2018 09:00:00 20,0 18,5 8 4 W 1013,2 15 12
15.10.2018 08:00:00 18,8 17,3 8 4 W 1013,1 15 0
15.10.2018 07:00:00 18,8 17,3 5 3 W 1012,9 10 0
15.10.2018 06:00:00 - - - - - - - -
15.10.2018 05:00:00 - - - - - - - -
15.10.2018 04:00:00 - - - - - - - -
15.10.2018 03:00:00 - - - - - - - -
15.10.2018 02:00:00 - - - - - - - -
15.10.2018 01:00:00 - - - - - - - -
15.10.2018 00:00:00 - - - - - - - -
14.10.2018 23:00:00 - - - - - - - -
14.10.2018 22:00:00 - - - - - - - -
14.10.2018 21:00:00 - - - - - - - -

tt = temperatuur
td = dauwpunt
ff = windsnelheid
dd = windrichting
ppp = luchtdruk
vv = zicht
sd = Zonneschijnduur

Weerstations in de omgeving